This is the latest recevied weather packets stored in our database for station/object NK7E. If no packets are shown the sender has not sent any weather packets the latest 10 day(s).
| Time | Temp. | Humidity | Pressure | Rain* | Wind** | Luminosity | Snow |
|---|---|---|---|---|---|---|---|
| 1777674318 | 28.33° C | 19% | 1010.6 hPa | 0 mm | - | 717 W/m² | - |
| 1777673716 | 27.78° C | 19% | 1010.7 hPa | 0 mm | - | 745 W/m² | - |
| 1777673116 | 28.33° C | 19% | 1010.7 hPa | 0 mm | - | 771 W/m² | - |
| 1777672516 | 28.33° C | 20% | 1010.9 hPa | 0 mm | - | 794 W/m² | - |
| 1777671916 | 27.78° C | 20% | 1011.1 hPa | 0 mm | - | 820 W/m² | - |
| 1777671316 | 28.33° C | 20% | 1011.1 hPa | 0 mm | - | 841 W/m² | - |
| 1777670716 | 27.78° C | 21% | 1011.4 hPa | 0 mm | - | 860 W/m² | - |
| 1777670116 | 27.78° C | 21% | 1011.5 hPa | 0 mm | - | 880 W/m² | - |
| 1777669516 | 27.78° C | 20% | 1011.5 hPa | 0 mm | - | 897 W/m² | - |
| 1777668921 | 27.78° C | 21% | 1011.6 hPa | 0 mm | - | 913 W/m² | - |
| 1777668316 | 27.22° C | 22% | 1011.7 hPa | 0 mm | - | 926 W/m² | - |
| 1777667716 | 27.22° C | 22% | 1011.9 hPa | 0 mm | - | 935 W/m² | - |
| 1777667116 | 27.22° C | 23% | 1011.9 hPa | 0 mm | - | 947 W/m² | - |
| 1777666516 | 27.22° C | 23% | 1012.1 hPa | 0 mm | - | 954 W/m² | - |
| 1777665916 | 27.22° C | 24% | 1012.1 hPa | 0 mm | - | 962 W/m² | - |
| 1777665316 | 26.67° C | 24% | 1012 hPa | 0 mm | - | 967 W/m² | - |
| 1777664716 | 26.67° C | 25% | 1012.3 hPa | 0 mm | - | 970 W/m² | - |
| 1777664116 | 26.67° C | 25% | 1012.3 hPa | 0 mm | - | 974 W/m² | - |
| 1777663516 | 26.11° C | 27% | 1012.6 hPa | 0 mm | - | 971 W/m² | - |
| 1777662916 | 26.11° C | 27% | 1012.7 hPa | 0 mm | - | 971 W/m² | - |
| 1777662316 | 25° C | 28% | 1012.7 hPa | 0 mm | - | 966 W/m² | - |
| 1777661716 | 24.44° C | 29% | 1012.9 hPa | 0 mm | - | 962 W/m² | - |
| 1777661116 | 23.89° C | 30% | 1013 hPa | 0 mm | - | 955 W/m² | - |
| 1777660516 | 24.44° C | 30% | 1013.1 hPa | 0 mm | - | 950 W/m² | - |
| 1777659916 | 23.89° C | 31% | 1013.2 hPa | 0 mm | - | 941 W/m² | - |
* Rain latest hour (hover to see other rain measurements)
** Current wind speed in m/s (hover to see current wind gust speed)